Location: Albany
(35.0170°S, 117.8920°E)
Time: 04:02:00
(UTC+08:00)

Vanguard 1 - Pass Details

Date: 25 January 2021
Orbit: 649 x 3833 km, 34.2° (Epoch: 26 February)

Event Time Altitude Azimuth Distance (km) Brightness Sun altitude
Rises 04:20:29 0° 266° (W) 3,060 - -11.6°
Exits shadow 04:22:44 10° 267° (W) 2,105 11.3 -11.2°
Reaches altitude 10° 04:22:48 10° 267° (W) 2,072 11.3 -11.2°
Maximum altitude 04:27:14 77° 353° (N) 698 9.2 -10.4°
Drops below altitude 10° 04:32:27 10° 78° (ENE) 2,424 12.8 -9.5°
Sets 04:35:23 0° 79° (E) 3,641 13.8 -9.0°
